Station: Hindmarsh Island  

  Atmospheric Gas Attenuation - ITU Rec 676-11   ----------------- dB/100km -----------------
Date Time Temp RH % AH g/m3 Dew Point Wind Direction Speed kph Gust kph Barometer mB Rainfall Since 9am 24GHz 47GHz 76GHz 122GHz 134GHz 241GHz
31/08 20:40 13 90 10.21 11.4 11 11 1024.5 0 23.1 29.3 47.5 124.8 122.7 423.1
31/08 20:30 13.1 91 10.38 11.7 11 13 1024.6 0 23.4 29.6 48.2 126.6 124.9 431.1
31/08 20:20 13.4 91 10.58 12 9 11 1024.6 0 23.8 29.8 48.9 128.5 127.3 439.4
31/08 20:10 13.5 90 10.53 11.9 9 13 1024.7 0 23.7 29.7 48.6 127.7 126.4 436.3
31/08 20:00 13.9 90 10.79 12.3 6 7 1024.7 0 24.3 30.0 49.5 130.1 129.5 447.1
31/08 19:50 13.7 89 10.54 11.9 6 6 1024.7 0 23.7 29.6 48.5 127.5 126.2 435.7
31/08 19:40 14.2 88 10.75 12.2 7 7 1024.8 0 24.2 29.8 49.1 129.1 128.4 443.4
31/08 19:30 14.4 87 10.75 12.3 7 7 1024.9 0 24.1 29.8 49.0 128.8 128.1 442.3
31/08 19:20 14.5 86 10.7 12.2 7 7 1025 0 24.0 29.7 48.7 128.1 127.2 439.2
31/08 19:10 14.7 85 10.7 12.2 6 7 1025 0 24.0 29.6 48.6 127.8 126.9 438.1
31/08 19:00 14.6 84 10.51 11.9 9 9 1025 0 23.6 29.3 47.8 125.7 124.4 429.3
31/08 18:50 14.9 85 10.83 12.4 6 9 1025 0 24.3 29.7 49.0 128.9 128.4 443.4
31/08 18:40 14.7 86 10.83 12.4 9 13 1025.1 0 24.3 29.8 49.2 129.3 128.7 444.6
31/08 18:30 14.5 87 10.82 12.4 13 17 1025.1 0 24.3 29.9 49.2 129.5 128.9 445.2
31/08 18:20 14.5 87 10.82 12.4 13 17 1025 0 24.3 29.9 49.2 129.5 128.9 445.2
31/08 18:10 14.9 87 11.09 12.8 13 17 1025.1 0 24.8 30.2 50.2 131.9 132.1 456.4
31/08 18:00 15.3 86 11.23 13 11 15 1025.1 0 25.1 30.3 50.5 132.9 133.4 461.0
31/08 17:50 16 83 11.31 13.1 15 17 1025.1 0 25.2 30.2 50.4 132.6 133.3 460.8
31/08 17:40 16.8 78 11.15 12.9 15 20 1025.1 0 24.8 29.7 49.2 129.4 129.7 448.2
31/08 17:30 17.8 71 10.78 12.5 9 17 1025 0 24.0 28.7 47.0 123.7 123.0 424.8
31/08 17:20 19.2 51 8.41 8.8 11 15 1025 0 18.9 24.5 37.0 96.9 90.4 311.1
31/08 17:10 19.3 53 8.79 9.5 13 19 1024.9 0 19.7 25.1 38.4 100.5 95.0 327.1
31/08 17:00 19.6 51 8.61 9.2 13 17 1024.9 0 19.3 24.7 37.5 98.4 92.4 318.1
31/08 16:50 19.7 52 8.83 9.6 11 17 1024.9 0 19.8 25.0 38.3 100.4 95.0 327.2
31/08 16:40 19.9 53 9.11 10 13 19 1024.8 0 20.4 25.4 39.3 103.0 98.2 338.5
31/08 16:30 20.1 51 8.86 9.7 13 20 1025 0 19.8 25.0 38.3 100.2 94.9 326.9
31/08 16:20 20.4 53 9.38 10.5 13 20 1025 0 20.9 25.7 40.1 105.1 101.0 348.2
31/08 16:10 20.3 52 9.14 10.1 17 20 1025.1 0 20.4 25.3 39.2 102.8 98.1 338.2
31/08 16:00 20.5 50 8.9 9.7 15 20 1025.3 0 19.9 24.9 38.2 100.2 94.9 327.1
31/08 15:50 20.3 50 8.79 9.5 17 22 1025.4 0 19.7 24.8 37.9 99.3 93.8 323.2
31/08 15:40 20.4 50 8.84 9.6 20 26 1025.5 0 19.8 24.9 38.1 99.7 94.3 324.9
31/08 15:30 20.4 50 8.84 9.6 19 26 1025.6 0 19.8 24.9 38.1 99.7 94.3 325.0
31/08 15:20 20.5 45 8.01 8.2 19 24 1025.8 0 18.0 23.6 35.0 91.5 84.2 289.5
31/08 15:10 20.7 50 9 9.9 19 26 1025.8 0 20.1 25.0 38.5 101.0 96.0 330.7
31/08 15:00 20.7 48 8.64 9.3 20 26 1025.9 0 19.3 24.5 37.2 97.4 91.6 315.3
31/08 14:50 20.6 48 8.59 9.2 20 26 1026 0 19.2 24.4 37.1 97.0 91.1 313.6
31/08 14:40 20.5 49 8.72 9.4 19 26 1026.1 0 19.5 24.7 37.6 98.5 92.8 319.6
31/08 14:30 20.8 50 9.05 10 19 24 1026.3 0 20.2 25.1 38.7 101.4 96.5 332.6
31/08 14:20 21.2 51 9.45 10.7 17 24 1026.4 0 21.0 25.6 40.0 104.9 100.9 348.2
31/08 14:10 20.6 48 8.59 9.2 17 22 1026.6 0 19.2 24.5 37.1 97.1 91.1 313.7
31/08 14:00 20.5 61 10.85 12.7 15 20 1026.9 0 24.0 28.0 45.8 120.5 119.8 414.3
31/08 13:50 20.2 62 10.84 12.7 15 19 1027.1 0 24.0 28.1 46.0 120.8 120.2 415.4
31/08 13:40 19.7 64 10.87 12.7 15 20 1027.3 0 24.1 28.3 46.4 121.9 121.4 419.5
31/08 13:30 20.1 65 11.3 13.3 17 22 1027.4 0 25.0 28.9 47.9 126.0 126.5 437.5
31/08 13:20 19.1 66 10.82 12.6 19 22 1027.7 0 24.0 28.4 46.6 122.4 121.7 420.5
31/08 13:10 18.7 69 11.05 12.9 19 22 1028 0 24.5 29.0 47.8 125.6 125.5 433.7
31/08 13:00 18.8 71 11.43 13.4 17 24 1028.2 0 25.3 29.6 49.3 129.6 130.5 451.3
31/08 12:50 18.4 72 11.32 13.3 15 20 1028.4 0 25.1 29.5 49.1 129.1 129.7 448.4
31/08 12:40 18.3 75 11.73 13.8 13 20 1028.7 0 26.0 30.3 50.9 133.9 135.6 468.9
31/08 12:30 18.1 73 11.28 13.2 13 17 1028.9 0 25.0 29.6 49.1 129.2 129.7 448.3
31/08 12:20 17 74 10.71 12.3 13 17 1029.2 0 23.9 29.0 47.4 124.6 123.7 427.2
31/08 12:10 17.3 76 11.2 13 13 19 1029.4 0 24.9 29.7 49.3 129.7 130.0 449.2
31/08 12:00 17 76 11 12.7 13 20 1029.6 0 24.5 29.5 48.7 127.9 127.7 441.3
31/08 11:50 17 78 11.29 13.1 15 20 1029.7 0 25.1 30.0 49.9 131.2 131.8 455.5
31/08 11:40 16.9 79 11.36 13.2 13 20 1029.9 0 25.3 30.2 50.3 132.2 133.0 459.6
31/08 11:30 16.6 80 11.3 13.1 15 19 1030 0 25.2 30.2 50.2 132.1 132.6 458.4
31/08 11:20 16.1 80 10.97 12.7 15 19 1030 0 24.5 29.8 49.1 129.1 128.9 445.1
31/08 11:10 15.1 79 10.19 11.5 13 19 1030.2 0 22.9 28.8 46.4 121.9 119.6 412.7
31/08 11:00 14.7 81 10.2 11.5 17 22 1030.4 0 22.9 28.9 46.7 122.7 120.4 415.3
31/08 10:40 14.1 91 11.04 12.7 11 15 1030.5 0 24.8 30.6 50.7 133.4 133.3 460.5
31/08 10:30 13.8 95 11.32 13 11 15 1030.6 0 25.4 31.2 52.2 137.2 138.0 476.6
31/08 10:20 13.1 97 11.07 12.6 11 15 1030.7 0 24.9 31.0 51.5 135.5 135.6 468.1
31/08 10:10 12.8 98 10.98 12.5 9 17 1030.8 0 24.7 31.0 51.3 135.0 134.8 465.4
31/08 10:00 12.8 98 10.98 12.5 11 15 1030.9 0 24.7 31.0 51.3 135.0 134.8 465.4
31/08 09:50 12.5 98 10.78 12.2 11 15 1030.9 0 24.3 30.7 50.6 133.1 132.4 456.9
31/08 09:40 11.9 98 10.38 11.6 11 15 1031 0 23.5 30.2 49.3 129.4 127.6 440.0
31/08 09:30 11.4 98 10.06 11.1 9 15 1031.1 0 22.8 29.8 48.2 126.4 123.7 426.5
31/08 09:20 11.1 98 9.87 10.8 11 13 1031.1 0 22.4 29.6 47.5 124.7 121.4 418.5
31/08 09:10 10.6 98 9.57 10.3 9 13 1031.2 0 21.8 29.2 46.5 122.0 117.9 406.0
31/08 09:00 10.2 98 9.33 9.9 9 13 1031.4 0 21.3 29.0 45.7 119.8 115.1 396.0
31/08 08:50 9.6 98 8.98 9.3 9 13 1031.4 0.2 20.6 28.5 44.5 116.6 110.9 381.4
31/08 08:40 9.4 98 8.87 9.1 9 13 1031.4 0.2 20.4 28.4 44.1 115.6 109.6 376.9
31/08 08:30 9.4 98 8.87 9.1 11 15 1031.4 0.2 20.4 28.4 44.1 115.6 109.6 376.9
31/08 08:20 9.3 98 8.81 9 11 15 1031.4 0.2 20.2 28.3 43.9 115.1 108.9 374.4
31/08 08:10 9.5 98 8.92 9.2 9 15 1031.4 0.2 20.5 28.5 44.3 116.1 110.2 378.9
31/08 08:00 9.3 98 8.81 9 11 15 1031.3 0.2 20.2 28.3 43.9 115.1 108.9 374.3
31/08 07:50 9.5 98 8.92 9.2 11 15 1031.3 0.2 20.5 28.5 44.3 116.1 110.2 378.9
31/08 07:40 9.4 98 8.87 9.1 11 15 1031.3 0 20.4 28.4 44.1 115.6 109.6 376.9
31/08 07:30 9.6 98 8.98 9.3 11 13 1031.3 0 20.6 28.5 44.5 116.6 110.9 381.4
31/08 07:20 9.3 98 8.81 9 9 13 1031.3 0 20.2 28.3 43.9 115.1 108.9 374.3
31/08 07:10 9.2 98 8.75 8.9 9 15 1031.3 0 20.1 28.3 43.7 114.5 108.2 371.8
31/08 07:00 9.2 98 8.75 8.9 11 15 1031.4 0 20.1 28.3 43.7 114.5 108.2 371.8
31/08 06:50 9.3 98 8.81 9 11 15 1031.3 0 20.2 28.3 43.9 115.1 108.9 374.3
31/08 06:40 9.4 98 8.87 9.1 13 15 1031.3 0 20.4 28.4 44.1 115.6 109.6 376.9
31/08 06:30 9.4 98 8.87 9.1 11 15 1031.3 0 20.4 28.4 44.1 115.6 109.6 376.9
31/08 06:20 9.5 98 8.92 9.2 11 15 1031.2 0 20.5 28.5 44.3 116.0 110.2 378.9
31/08 06:10 9.6 97 8.89 9.1 9 13 1031.2 0 20.4 28.4 44.1 115.5 109.6 376.9
31/08 06:00 9.8 97 9 9.3 9 13 1031.2 0 20.6 28.5 44.4 116.5 110.9 381.4
31/08 05:50 9.7 97 8.94 9.2 9 15 1031.2 0 20.5 28.4 44.2 116.0 110.2 378.9
31/08 05:40 9.9 97 9.06 9.4 9 13 1031.1 0 20.8 28.6 44.6 117.1 111.6 383.9
31/08 05:30 9.9 97 9.06 9.4 11 13 1031.2 0 20.8 28.6 44.6 117.1 111.6 383.9
31/08 05:20 10.1 97 9.17 9.6 9 13 1031.2 0 21.0 28.7 45.0 118.1 112.9 388.4
31/08 05:10 10.4 97 9.35 9.9 9 13 1031.3 0 21.3 28.9 45.6 119.7 115.0 396.0
31/08 05:00 10.5 97 9.41 10 7 11 1031.2 0 21.5 29.0 45.8 120.2 115.7 398.5
31/08 04:50 10.7 97 9.53 10.2 9 13 1031.2 0 21.7 29.1 46.2 121.3 117.2 403.5
31/08 04:40 10.9 97 9.65 10.4 7 11 1031.2 0 22.0 29.3 46.6 122.4 118.6 408.5
31/08 04:30 11 97 9.71 10.5 9 13 1031.2 0 22.1 29.3 46.9 123.0 119.3 411.0
31/08 04:20 11 96 9.61 10.4 9 11 1031.2 0 21.9 29.2 46.4 121.8 117.9 405.9
31/08 04:10 11.2 97 9.83 10.7 7 9 1031.2 0 22.3 29.5 47.3 124.1 120.7 416.0
31/08 04:00 11.2 97 9.83 10.7 7 9 1031.3 0 22.3 29.5 47.3 124.1 120.7 416.0

Last Refresh: 31-Aug-2026 20:48:31

Bureau of Meteorology